Regional Weather Roundup
Issued by NWS Cleveland, OH

Home | Current Version | Previous Version | Text Only | Print | Product List | Glossary Off
Versions: 1 2 3 4 5 6 7 8 9 10 11 12 13 14 15 16 17 18 19 20 21 22 23 24 25 26 27 28 29 30 31 32 33 34 35 36 37 38 39 40 41 42 43 44 45 46 47 48 49 50

692
ASUS41 KCLE 181810
RWRCLE
OHIO REGIONAL WEATHER ROUNDUP
NATIONAL WEATHER SERVICE WILMINGTON, OH
100 PM EST SAT NOV 18 2017

NOTE: "FAIR" INDICATES FEW OR NO CLOUDS BELOW 12,000 FEET WITH NO
SIGNIFICANT WEATHER AND/OR OBSTRUCTIONS TO VISIBILITY.

OHZ001>008-015>018-024>027-034-035-043-044-181900-
   NORTHWEST OHIO

CITY           SKY/WX    TMP DP  RH WIND       PRES   REMARKS
DEFIANCE       TSTM      51  50  96 E6        29.26F FOG
FINDLAY        LGT RAIN  52  49  89 SE10G18   29.30F FOG
TOLEDO EXPRESS RAIN      50  50 100 SE6       29.30F FOG
TOLEDO EXEC    TSTM      49  48  97 SE6       29.31F FOG
LIMA           CLOUDY    51  51 100 SE14      29.27F
$$

OHZ009>014-019>023-028>033-038-089-181900-
   NORTHEAST OHIO

CITY           SKY/WX    TMP DP  RH WIND       PRES   REMARKS
CLE-HOPKINS    RAIN      50  48  93 S12       29.39F FOG
CLE-LAKEFRONT  RAIN      50  47  89 S18       29.37F FOG
CUY CO. ARPT   LGT RAIN  50  46  87 S16       29.39F FOG
LORAIN-ELYRIA  LGT RAIN  48  43  82 S14       29.37F
ASHTABULA      LGT RAIN  45  45 100 S9        29.43F FOG
AKRON-CANTON   RAIN      48  45  89 S16       29.42F FOG
WOOSTER        RAIN      47  46  97 S7        29.42F FOG
MANSFIELD      LGT RAIN  51  50  96 S12       29.38F FOG
YOUNGSTOWN     RAIN      46  45  96 SE9       29.45F FOG
$$

OHZ042-051>053-060>062-070>072-077>081-181900-
  SOUTHWEST OHIO

CITY           SKY/WX    TMP DP  RH WIND       PRES   REMARKS
CINC-COVINGTON CLOUDY    64  58  80 SW29G46   29.33F
CINC-LUNKEN    CLOUDY    65  57  75 S25G41    29.35F
HAMILTON       CLOUDY    65  57  75 SW22G33   29.32F
DAYTON         CLOUDY    62  57  83 S26G35    29.30F
WRIGHT-PAT AFB CLOUDY    63  56  78 S23G30    29.29F
DAYTON GENERAL CLOUDY    63  55  75 SW17G37   29.31F
WILMINGTON     CLOUDY    62  56  80 S26G39    29.32F
$$

OHZ036-037-039>041-045>050-054>059-063>069-073>076-082>088-181900-
  CENTRAL AND SOUTHEAST OHIO

CITY           SKY/WX    TMP DP  RH WIND       PRES   REMARKS
COLUMBUS       CLOUDY    60  52  74 S14G25    29.37F
OSU AIRPORT    CLOUDY    58  52  80 S18G25    29.35F
BOLTON FIELD   CLOUDY    59  52  77 S20G26    29.37F
RICKENBACK AFB CLOUDY    60  53  76 S16G31    29.37F
NEWARK         CLOUDY    50  46  86 MISG      29.38F
MARION         CLOUDY    51  48  89 SE10      29.36F FOG
LANCASTER      CLOUDY    59  50  72 S12       29.40F
ZANESVILLE     CLOUDY    54  45  71 S9        29.42F
NEW PHILLY     LGT RAIN  48  45  89 SE6       29.46F
$$




USA.gov is the U.S. government's official web portal to all federal, state and local government web resources and services.